Regional Weather Roundup
Issued by NWS Charleston, SC

Current Version | Previous Version | Graphics & Text | Print | Product List | Glossary On
Versions: 1 2 3 4 5 6 7 8 9 10 11 12 13 14 15 16 17 18 19 20 21 22 23 24 25 26 27 28 29 30 31 32 33 34 35 36 37 38 39 40 41 42 43 44 45 46 47 48 49 50
000
ASUS42 KCHS 312311
RWRCHS

REGIONAL WEATHER ROUNDUP
NATIONAL WEATHER SERVICE CHARLESTON SC
600 PM EST SAT JAN 31 2015

NOTE: "FAIR" INDICATES FEW OR NO CLOUDS BELOW 12,000 FEET WITH NO
SIGNIFICANT WEATHER AND/OR OBSTRUCTIONS TO VISIBILITY.

NOT ALL STATIONS ARE QUALITY CONTROLLED BY THE NATIONAL
WEATHER SERVICE. USE DATA WITH CAUTION...ESPECIALLY
DEWPOINT OBSERVATIONS.

SCZ027-030-031-034>040-042>050-010000-
...SOUTHEAST SOUTH CAROLINA...

CITY           SKY/WX    TMP DP  RH WIND       PRES   REMARKS
N CHARLESTON   PTCLDY    43  25  49 S7        30.35R
WATERFRONT PRK   N/A     46 N/A N/A S7          N/A
MOUNT PLEASANT FAIR      45  30  57 CALM      30.35R
PINOPOLIS        N/A     54  23  30 MISG      30.25S
MONCKS CORNER  FAIR      46  21  36 CALM      30.34R
SUMMERVILLE    FAIR      50  23  34 CALM      30.35R
BEAUFORT MCAS  CLEAR     48  31  51 S5        30.35S
BEAUFORT ARPT  FAIR      45  32  61 CALM      30.35S
HILTON HEAD IS CLEAR     45  30  57 CALM      30.37S
WALTERBORO     CLEAR     50  14  23 CALM      30.35R
ALLENDALE      FAIR      52  21  30 CALM      30.32F

...SOUTHERN MIDLANDS AND PEE DEE...

CITY           SKY/WX    TMP DP  RH WIND       PRES   REMARKS
GEORGETOWN     NOT AVBL
KINGSTREE      NOT AVBL
ORANGEBURG     CLEAR     49  15  25 CALM      30.33R
BARNWELL       FAIR      52  19  28 S3        30.34R
AIKEN          FAIR      48  25  40 SW3       30.35R
MANNING        FAIR      46  23  39 CALM      30.34R
COLUMBIA       MOCLDY    53  15  22 CALM      30.32S
SUMTER         CLEAR     49  13  23 SW3       30.31R
FLORENCE       CLEAR     48  12  23 SW3       30.32S
MYRTLE BEACH   CLEAR     45  21  39 S9        30.36R
N MYRTLE BEACH CLEAR     44  25  47 S7        30.33R

$$

GAZ063-065-086>088-099>101-113>116-118-119-134>141-150-010000-
...SOUTHEAST GEORGIA...

CITY           SKY/WX    TMP DP  RH WIND       PRES   REMARKS
SAVANNAH ARPT  PTCLDY    47  20  34 SE6       30.36R
HUNTER AAF     CLEAR     46  26  46 SE5       30.34R
FORT STEWART   CLEAR     48  26  42 SE3       30.34R
STATESBORO     CLEAR     47  28  48 CALM      30.33R
SYLVANIA       CLEAR     49  29  45 CALM      30.33S
CLAXTON        FAIR      48  30  49 CALM      30.33S

...CSRA...CENTRAL AND FAR SOUTHEAST GEORGIA...

CITY           SKY/WX    TMP DP  RH WIND       PRES   REMARKS
THOMSON        CLOUDY    54  27  34 CALM      30.35S
AUGUSTA-BUSH   MOCLDY    51  14  22 S5        30.32S
AUGUSTA-DANIEL MOCLDY    54  15  21 S3        30.32R
SWAINSBORO     FAIR      54   1  12 CALM      30.32S
VIDALIA        CLEAR     54  25  32 E3        30.32R
EASTMAN        FAIR      54  26  32 CALM      30.33R
HAZLEHURST     FAIR      55  25  31 CALM      30.30S
ALMA           CLEAR     51  29  42 CALM      30.30S
WAYCROSS       CLEAR     58  35  40 SE8       30.31S
JESUP          FAIR      54  32  43 CALM      30.34S
BAXLEY         FAIR      54  30  40 CALM      30.30F
BRUNSWICK      CLEAR     46  32  57 NE6       30.36S
SAINT SIMONS   CLEAR     49  34  56 NE7       30.35S

$$

SCZ027-028-034-036>038-045-046-048>050-GAZ119-141-010000-
...LAKE AND SUPPLEMENTAL COASTAL OBSERVATIONS...

STATION/POSITION TIME  TEMP    WIND        PRES    WAVE   SWELL
                       AIR SEA DIR/SP/G            HT/PER HT/PER/DIR
                 (UTC) (F)     (DEG/KT/KT) (MB)    (FT/S) (FT/S/D)
UPR LAKE MARION  NOT AVBL
WINYAH BAY       NOT AVBL
LAKE MURRAY      2200   56     130/  1/  2 1026.1R
ACE BASIN NERRS  NOT AVBL
FORT PULASKI     2200   48 52   80/  8/  9 1028.3F
SAPELO ISLAND    NOT AVBL

$$

ANZ835-935-AMZ111-154-330-350-352-354-370-450-454-472-010000-
...C-MAN AND BUOY OBSERVATIONS...

STATION/POSITION TIME  TEMP    WIND        PRES    WAVE   SWELL
                       AIR SEA DIR/SP/G            HT/PER HT/PER/DIR
                 (UTC) (F)     (DEG/KT/KT) (MB)    (FT/S) (FT/S/D)
BUOY 41004       2250   50 69   50/  8/ 12 1027.4R   4/ 7   3/ 7
BUOY 41008       2250   51 54   70/  6/  8 1027.7R   4/ 6   3/ 60/ 6
FOLLY BEACH CMAN 2300   47     170/  3/  4 1028.3R
CAPERS NEARSHORE 2200   47     150/  6/  8   N/A
FRIPP NEARSHORE  2200   49     120/  8/ 12 1026.8F


STATION/POSITION TIME  TEMP    WIND        PRES    WAVE   SWELL
                       AIR SEA DIR/SP/G            HT/PER HT/PER/DIR
                 (UTC) (F)     (DEG/KT/KT) (MB)    (FT/S) (FT/S/D)
5E ST. MARYS GA  2221      56                N/A     4/ 7
FRYING PAN BUOY  2250   44 64  270/  2/  4 1028.5R   3/10   3/ 60/10
BUOY 41025       2250   41 70  300/ 14/ 16 1026.5R   5/10   3/ 30/10
CAPE LOOKOUT NC  2300   41     200/  3/  3 1027.0R
BUOY 41002       2250   54 69  340/ 16/ 21 1026.0R   9/10   7/360/10
BUOY 41010       2220   62 73   40/ 12/ 16 1025.6R
ST AUGUSTINE FL  2300   56      20/ 15/ 16 1026.9R


$$



USA.gov is the U.S. government's official web portal to all federal, state and local government web resources and services.